[[{"header":{"parameterUnit":"m.s-1","parameterCategory":1,"la1":30.2991,"la2":30.254,"lo1":-89.0895,"lo2":-89.0444,"dy":0.0017,"dx":0.0017,"nx":28,"ny":28,"refTime":"2025-05-24T03:00:00:Z","depth":0,"parameterNumber":2,"parameterNumberName":"U-component_of_WINDS"},"data":[0,0,0,0,0,0,0,0,0,0,0,0,0,0,0,0,0,0,0,0,0,0,0,0,0,0,0,0,0,0,0,0,0,0,0,0,0,0,0,0,0,0,0,0,0,0,0,0,0,0,0,0,0,0,0,0,0,0,1.3996,1.3997,0,1.4067,1.4068,1.4069,1.4063,1.4062,1.4061,1.406,1.4131,1.4134,1.4137,0,0,0,0,0,0,0,0,0,0,0,0,0,1.3852,1.3855,1.3996,1.3997,1.3998,1.4067,1.4068,1.4069,1.4063,1.4062,1.406,1.4059,1.413,1.4134,1.4137,0,0,0,0,0,0,0,0,0,0,0,0,0,1.3918,1.3856,1.3996,1.4003,1.4005,1.4067,1.4068,1.4069,1.4063,1.4062,1.406,1.4059,1.4129,1.4133,1.4138,1.4197,0,0,1.4151,1.4153,0,0,0,0,0,0,0,0,1.3915,1.3924,1.4001,1.4003,1.4004,1.4055,1.4044,1.4112,1.4064,1.4041,1.406,1.4058,1.4107,1.4113,1.413,1.42,1.4203,1.4151,1.4154,1.4156,1.4157,0,0,0,0,0,0,0,1.391,1.392,1.4024,1.4002,1.4004,1.4002,1.401,1.4056,1.4082,1.4043,1.4043,1.4051,1.4107,1.4126,1.4131,1.4204,1.4151,1.4155,1.4158,1.4159,1.4324,1.4326,0,0,0,0,0,0,1.3904,1.3917,1.4022,1.4026,1.3955,1.4006,1.4014,1.404,1.4082,1.4086,1.4052,1.4051,1.4119,1.4126,1.4134,1.4204,1.4156,1.416,1.4162,1.4323,1.4325,1.4327,0,0,0,0,0,0,1.3901,1.3913,1.4019,1.3971,1.3985,1.401,1.4039,1.4042,1.406,1.4089,1.4093,1.4067,1.4118,1.4128,1.4181,1.4207,1.4162,1.4166,1.432,1.4323,1.4326,1.4347,0,0,0,0,0,0,1.3897,1.3912,1.3936,1.3972,1.3987,1.4066,1.4041,1.4045,1.4068,1.4066,1.4103,1.4108,1.4117,1.4174,1.4185,1.4212,1.4169,1.4318,1.4322,1.4325,1.4344,1.435,1.4355,0,0,0,0,0,1.3892,1.3939,1.3937,1.395,1.4017,1.4067,1.4076,1.4086,1.407,1.4094,1.4111,1.4106,1.4202,1.418,1.4192,1.4221,1.4317,1.4321,1.4325,1.4342,1.4349,1.4355,0,0,0,0,0,0,1.3905,1.3944,1.3942,1.4003,1.4032,1.4066,1.4096,1.4094,1.4128,1.4125,1.4136,1.4144,1.4197,1.4214,1.4188,1.4279,1.4257,1.4264,1.4266,1.4273,1.4279,1.4273,1.4173,0,0,0,0,0,1.3915,1.3953,1.3985,1.4035,1.405,1.407,1.4092,1.4098,1.4128,1.414,1.4162,1.4191,1.4227,1.4251,1.4287,1.4346,1.4354,1.4372,1.4378,1.4382,1.4387,1.4419,1.4427,1.434,1.434,1.434,0,0,1.3936,1.3962,1.3986,1.4039,1.4062,1.41,1.4081,1.4122,1.415,1.4146,1.4198,1.4215,1.4247,1.4304,1.433,1.4319,1.4413,1.4387,1.439,1.4393,1.4424,1.4432,1.4439,1.4342,1.4342,1.4341,0,0,1.3994,1.4018,1.4062,1.4085,1.412,1.4133,1.4144,1.4178,1.4189,1.4241,1.4239,1.4272,1.4335,1.4358,1.4378,1.4443,1.4439,1.4454,1.4483,1.4513,1.452,1.4526,1.4548,1.4556,1.4459,1.4459,1.4459,0,1.4016,1.4074,1.4085,1.4126,1.4149,1.4147,1.4191,1.4213,1.4258,1.4273,1.4261,1.4339,1.4361,1.4422,1.4438,1.4454,1.4465,1.4449,1.4518,1.4524,1.453,1.4551,1.4559,1.4461,1.446,1.446,1.446,0,1.4098,1.4138,1.4169,1.4212,1.4238,1.4281,1.4297,1.4322,1.4325,1.4339,1.439,1.4417,1.4457,1.4472,1.4475,1.4533,1.4525,1.4516,1.4494,1.454,1.4559,1.4568,1.4463,1.4462,1.4462,1.4461,0,0,1.4166,1.4214,1.4225,1.4244,1.4282,1.4313,1.4354,1.4394,1.4414,1.4445,1.4479,1.4532,1.4523,1.4545,1.4551,1.4578,1.4626,1.4565,1.4566,1.4574,1.4689,1.4695,1.4705,1.4624,1.4625,1.4627,1.4686,0,1.4227,1.4301,1.4312,1.4377,1.4413,1.4412,1.4448,1.4474,1.4488,1.452,1.4535,1.4572,1.4558,1.4571,1.4598,1.4614,1.4649,1.461,1.4655,1.4656,1.4646,1.4715,1.4722,1.4777,1.4694,1.4695,1.4696,0,1.4308,1.434,1.4409,1.4441,1.4456,1.4489,1.4525,1.4556,1.4585,1.4593,1.4618,1.462,1.4662,1.4639,1.4696,1.4669,1.4688,1.4698,1.4701,1.4705,1.4678,1.472,1.4795,1.4803,1.4709,1.4708,1.4707,0,1.4349,1.441,1.4459,1.4475,1.4514,1.4536,1.4553,1.4581,1.4604,1.4635,1.4649,1.4685,1.4704,1.4731,1.4742,1.4724,1.4798,1.4776,1.4805,1.4804,1.482,1.4819,1.4898,1.4833,1.4833,1.4833,1.4833,0,1.4415,1.4457,1.4478,1.4508,1.4554,1.4565,1.4611,1.4627,1.4651,1.4683,1.4684,1.4714,1.4728,1.4759,1.4768,1.4813,1.4822,1.4829,1.4831,1.4829,1.4828,1.484,1.4836,1.4835,1.4835,1.4834,1.4834,0,1.4469,1.4485,1.4538,1.457,1.4579,1.4611,1.4638,1.4667,1.468,1.472,1.473,1.4751,1.4788,1.4802,1.4848,1.4853,1.4905,1.4904,1.4895,1.4895,1.4923,1.492,1.5012,1.5025,1.4953,1.4954,1.4954,0,1.451,1.4542,1.4577,1.4599,1.4617,1.4652,1.4675,1.4686,1.471,1.4745,1.4769,1.4806,1.4836,1.4895,1.4914,1.4948,1.4947,1.4977,1.4952,1.4948,1.4946,1.4944,1.4946,1.4982,1.4982,1.4983,1.4984,0,1.458,1.4586,1.4619,1.4655,1.4682,1.471,1.4738,1.4755,1.4771,1.4797,1.4835,1.4858,1.4904,1.494,1.4975,1.4992,1.499,1.4991,1.4999,1.4997,1.499,1.4993,1.4907,1.4989,1.4988,1.4988,1.4988,1.4988,1.4628,1.4656,1.4685,1.4721,1.4743,1.4768,1.4796,1.4812,1.4845,1.4883,1.4888,1.4928,1.4956,1.5002,1.502,1.5051,1.5043,1.5055,1.5058,1.5061,1.5062,1.4986,1.5058,1.5058,1.5058,1.5058,1.5057,0,1.4697,1.4715,1.4749,1.4787,1.4815,1.4811,1.4841,1.4865,1.49,1.4926,1.4956,1.4999,1.5034,1.5055,1.5089,1.511,1.511,1.5119,1.5117,1.512,1.5068,1.5057,1.5118,1.5118,1.5118,1.5118,1.5118,1.5118,1.4736,1.4783,1.4792,1.4849,1.4866,1.4907,1.4924,1.4947,1.4967,1.5015,1.5044,1.5058,1.5081,1.5117,1.5149,1.5154,1.5166,1.5175,1.5179,1.513,1.5124,1.5118,1.5108,1.5178,1.5178,1.5229,1.5229,1.5229]},{"header":{"parameterUnit":"m.s-1","parameterCategory":1,"la1":30.2991,"la2":30.254,"lo1":-89.0895,"lo2":-89.0444,"dy":0.0017,"dx":0.0017,"nx":28,"ny":28,"refTime":"2025-05-24T03:00:00:Z","depth":0,"parameterNumber":3,"parameterNumberName":"V-component_of_WINDS"},"data":[0,0,0,0,0,0,0,0,0,0,0,0,0,0,0,0,0,0,0,0,0,0,0,0,0,0,0,0,0,0,0,0,0,0,0,0,0,0,0,0,0,0,0,0,0,0,0,0,0,0,0,0,0,0,0,0,0,0,3.9717,3.9717,0,3.9784,3.9785,3.9786,3.9746,3.9744,3.9742,3.974,3.9803,3.9806,3.981,0,0,0,0,0,0,0,0,0,0,0,0,0,3.9547,3.955,3.9717,3.9717,3.9718,3.9784,3.9785,3.9786,3.9746,3.9744,3.9741,3.9739,3.9802,3.9806,3.981,0,0,0,0,0,0,0,0,0,0,0,0,0,3.9618,3.9551,3.9716,3.9707,3.9706,3.9784,3.9785,3.9786,3.9747,3.9744,3.9741,3.9738,3.98,3.9805,3.981,3.9899,0,0,3.9826,3.9828,0,0,0,0,0,0,0,0,3.9614,3.9624,3.9707,3.9707,3.9707,3.9754,3.9748,3.9824,3.9747,3.9731,3.974,3.9737,3.9788,3.9794,3.9813,3.9902,3.9905,3.9827,3.983,3.9832,3.9833,0,0,0,0,0,0,0,3.9609,3.9621,3.9743,3.9708,3.9708,3.9697,3.9704,3.9762,3.9775,3.9732,3.973,3.9738,3.9788,3.9808,3.9814,3.9906,3.9827,3.9831,3.9834,3.9836,4.0071,4.0074,0,0,0,0,0,0,3.9606,3.9617,3.9741,3.9745,3.9653,3.9702,3.971,3.9742,3.9774,3.9776,3.9741,3.9736,3.9801,3.9808,3.9816,3.9923,3.9832,3.9837,3.984,4.0068,4.0072,4.0075,0,0,0,0,0,0,3.9602,3.9617,3.9738,3.9681,3.9695,3.9708,3.9744,3.9744,3.9765,3.9781,3.9782,3.976,3.9799,3.9809,3.9879,3.9924,3.9839,3.9844,4.0064,4.0069,4.0074,4.0136,0,0,0,0,0,0,3.9598,3.9616,3.9652,3.9682,3.9698,3.9802,3.9747,3.9748,3.9775,3.9769,3.9799,3.9801,3.9797,3.9872,3.9885,3.993,3.9848,4.006,4.0067,4.0072,4.013,4.0143,4.0153,0,0,0,0,0,3.9592,3.9665,3.9654,3.9669,3.9743,3.9805,3.9814,3.9811,3.9778,3.9813,3.9823,3.98,3.9917,3.988,3.9893,3.9941,4.0058,4.0065,4.0072,4.0125,4.014,4.0153,0,0,0,0,0,0,3.9637,3.9669,3.9656,3.9742,3.9772,3.9798,3.9842,3.9827,3.9864,3.9857,3.9849,3.9856,3.993,3.9942,3.9899,4.0029,3.9982,3.9992,4.0018,4.0032,4.0044,4.0039,3.9852,0,0,0,0,0,3.9658,3.9708,3.9732,3.9805,3.9821,3.9829,3.9856,3.9851,3.988,3.9891,3.9906,3.9934,3.9977,4.0005,4.0045,4.0132,4.0137,4.0171,4.0183,4.0192,4.0201,4.0247,4.0262,4.0099,4.0098,4.0098,0,0,3.97,3.9723,3.9755,3.9815,3.9837,3.9887,3.984,3.9894,3.993,3.9899,3.9967,3.9979,4.0009,4.0088,4.0123,4.01,4.0247,4.0201,4.0208,4.0212,4.0256,4.0271,4.0285,4.0103,4.0102,4.0102,0,0,3.9802,3.9826,3.989,3.9913,3.9948,3.9953,3.9969,3.9998,4.0006,4.0075,4.0052,4.0094,4.0168,4.0191,4.0212,4.0323,4.0303,4.0336,4.0396,4.0441,4.0454,4.0465,4.0505,4.0519,4.0345,4.0345,4.0345,0,3.985,3.9926,3.9923,3.9981,4.0007,3.9983,4.0047,4.0069,4.0114,4.0132,4.0107,4.02,4.0218,4.0302,4.033,4.0347,4.0364,4.0333,4.0453,4.0464,4.0475,4.0512,4.0527,4.0349,4.0348,4.0348,4.0348,0,3.9983,4.0036,4.0083,4.0131,4.0162,4.0222,4.0227,4.0258,4.0251,4.0258,4.0328,4.0349,4.0394,4.0413,4.0405,4.0496,4.0481,4.0454,4.0407,4.0494,4.053,4.0544,4.0354,4.0353,4.0352,4.0351,0,0,4.0115,4.0162,4.0179,4.02,4.0238,4.0278,4.0336,4.0382,4.0409,4.0441,4.0489,4.0553,4.0529,4.0553,4.0546,4.0586,4.0673,4.0555,4.0555,4.0576,4.0775,4.0795,4.0812,4.066,4.0663,4.0665,4.0772,0,4.022,4.0325,4.0325,4.042,4.0469,4.0447,4.0498,4.0525,4.0533,4.0574,4.0582,4.0628,4.0592,4.0607,4.0645,4.0655,4.0713,4.0647,4.0703,4.0705,4.0697,4.083,4.0851,4.0951,4.0786,4.0788,4.079,0,4.0357,4.0396,4.0498,4.0529,4.0549,4.0595,4.0637,4.0677,4.0706,4.071,4.0737,4.0725,4.0782,4.0734,4.0812,4.0767,4.079,4.0798,4.0802,4.0807,4.0753,4.0839,4.0983,4.0998,4.0812,4.081,4.0808,0,4.0444,4.0522,4.0593,4.0612,4.0649,4.0682,4.0699,4.0726,4.0754,4.0789,4.0807,4.0848,4.0871,4.0902,4.0901,4.0866,4.098,4.0931,4.0983,4.0983,4.1008,4.1006,4.1158,4.1023,4.1022,4.1022,4.1022,0,4.0561,4.0624,4.0633,4.0677,4.0746,4.0744,4.0812,4.0825,4.0849,4.0894,4.0876,4.0917,4.0913,4.0955,4.0954,4.1018,4.1028,4.1031,4.103,4.1033,4.1033,4.1048,4.1041,4.1026,4.1025,4.1024,4.1024,0,4.067,4.0679,4.0755,4.0785,4.0794,4.0844,4.0868,4.0909,4.0916,4.0972,4.0985,4.0995,4.1043,4.1045,4.1099,4.1099,4.1178,4.1169,4.1169,4.1167,4.1219,4.1214,4.1386,4.1408,4.1257,4.1259,4.126,0,4.0745,4.0793,4.0829,4.0859,4.0878,4.0926,4.0955,4.0954,4.0984,4.1022,4.1058,4.1105,4.1142,4.1219,4.123,4.1271,4.1263,4.1321,4.1269,4.1271,4.1264,4.1262,4.1266,4.1331,4.1332,4.1334,4.1335,0,4.0876,4.0878,4.0922,4.0968,4.1003,4.1039,4.1071,4.1096,4.1098,4.1133,4.1183,4.1212,4.1269,4.1315,4.1356,4.137,4.1353,4.1351,4.1365,4.1369,4.1367,4.1369,4.1196,4.1347,4.1346,4.1345,4.1344,4.1344,4.097,4.1012,4.1045,4.1094,4.1119,4.115,4.119,4.1203,4.1246,4.1294,4.129,4.1345,4.1373,4.1426,4.1444,4.1486,4.1466,4.1486,4.1491,4.1496,4.1502,4.136,4.1493,4.1492,4.1492,4.1492,4.1491,0,4.11,4.1121,4.1166,4.1214,4.1252,4.1235,4.127,4.1303,4.1353,4.1382,4.142,4.1477,4.1522,4.1537,4.158,4.1611,4.1604,4.1622,4.1619,4.1623,4.1517,4.1501,4.1627,4.1627,4.1627,4.1627,4.1627,4.1627,4.1173,4.1244,4.125,4.1332,4.1351,4.1408,4.1429,4.1457,4.148,4.1546,4.1584,4.1595,4.1618,4.1662,4.1702,4.1705,4.1722,4.1743,4.1743,4.1644,4.163,4.1618,4.1602,4.1747,4.1747,4.1845,4.1846,4.1847]}]]